This demonstration page uses our WeatherBlox Daily Observations layout. Learn more.

Left ArrowRight Arrow

41.86663, -103.66717

Hourly Observations for April 14, 2016

Temp ( °F °C ) Dew Point ( °F °C ) Humidity (%) Winds ( mph kmh ) Pressure ( in mb ) Visibility ( mi km ) Precip ( " mm )
12:53 am 00:53 Clear 56 13.3 35 1.7 46 46 NNW 3 6 29.79 1009 10 16 N/A
1:53 am 01:53 Clear 55 12.8 35 1.7 47 47 SE 7 11 29.78 1008 10 16 N/A
2:53 am 02:53 Clear 52 11.1 34 1.1 50 50 ESE 9 15 29.77 1008 10 16 N/A
3:53 am 03:53 Clear 47 8.3 34 1.1 61 61 ESE 10 17 29.77 1008 10 16 N/A
4:53 am 04:53 Clear 43 6.1 33 0.6 68 68 E 5 7 29.78 1009 10 16 N/A
5:53 am 05:53 Mostly Clear 44 6.7 34 1.1 68 68 ESE 6 9 29.78 1008 10 16 N/A
6:53 am 06:53 Partly Cloudy 48 8.9 36 2.2 63 63 E 6 9 29.78 1008 10 16 N/A
7:53 am 07:53 Sunny 54 12.2 38 3.3 55 55 SE 7 11 29.77 1008 10 16 N/A
8:53 am 08:53 Mostly Sunny 58 14.4 40 4.4 51 51 SE 8 13 29.75 1007 10 16 N/A
9:53 am 09:53 Sunny 64 17.8 41 5 43 43 SE 7 11 29.72 1007 10 16 N/A
10:53 am 10:53 Sunny 68 20 41 5 38 38 ESE 8 13 29.69 1006 10 16 N/A
11:53 am 11:53 Sunny 73 22.8 40 4.4 30 30 ESE 9 15 29.65 1004 10 16 N/A
12:53 pm 12:53 Mostly Sunny 78 25.6 36 2.2 22 22 VRB 7 11 29.59 1002 10 16 N/A
1:53 pm 13:53 Mostly Sunny 80 26.7 32 undefined 17 17 SSE 26 43 29.55 1001 10 16 N/A
2:53 pm 14:53 Mostly Sunny 78 25.6 33 0.6 19 19 S 21 33 29.52 1000 10 16 N/A
3:53 pm 15:53 Partly Cloudy 75 23.9 39 3.9 27 27 SE 23 37 29.50 999 10 16 N/A
4:53 pm 16:53 Mostly Sunny 78 25.6 37 2.8 23 23 SSE 30 48 29.47 998 10 16 N/A
5:53 pm 17:53 Sunny 77 25 28 -2.2 16 16 S 16 26 29.46 998 10 16 N/A
6:53 pm 18:53 Sunny 73 22.8 39 3.9 29 29 SSE 20 31 29.44 997 10 16 N/A
7:53 pm 19:53 Clear 69 20.6 42 5.6 38 38 SE 16 26 29.42 996 10 16 N/A
8:53 pm 20:53 Clear 68 20 43 6.1 40 40 SE 17 28 29.41 996 10 16 N/A
9:53 pm 21:53 Mostly Cloudy 65 18.3 39 3.9 39 39 SSE 15 24 29.43 997 10 16 N/A
10:53 pm 22:53 Cloudy 63 17.2 43 6.1 48 48 SSE 14 22 29.44 997 10 16 N/A
11:08 pm 23:08 Cloudy 63 17 39 4 42 42 W 20 31 29.47 998 10 16 N/A
11:36 pm 23:36 Cloudy with Nearby Thunderstorms 55 13 43 6 63 63 W 14 22 29.53 1000 10 16 N/A
11:49 pm 23:49 Cloudy with Light Thunderstorms 55 13 43 6 63 63 W 16 26 29.53 1000 10 16 0.03 0.76
11:53 pm 23:53 Cloudy with Light Thunderstorms 54 12.2 44 6.7 69 69 W 17 28 29.53 1000 9 14 0.03 0.76

Powered by AerisWeather